Simultaneous Nadir Overpasses (SNOs) Predictions

Prediction of SNOs between NOAA-19 and METOP-C Satellite Orbit:

Table of predicted SNOs for the next 14.0 days since TLE Epoch: 10/28/2023
Index Date (NOAA-19) Time (NOAA-19) Lat,Lon (NOAA-19) SZA (NOAA-19 ) Date (METOP-C) Time (METOP-C) Lat,Lon (METOP-C) SZA (METOP-C ) Distance(km) Time Diff (sec)
1 11/04/2023 08:27:33 80.81, 85.58 97.85 11/04/2023 08:28:25 80.81, 85.65 97.88 1.19 52
2 11/04/2023 09:18:27 -80.82,-106.87 82.11 11/04/2023 09:19:07 -80.81,-106.97 82.11 1.92 40
3 11/04/2023 10:09:31 80.82, 60.35 97.90 11/04/2023 10:09:46 80.82, 60.51 97.93 2.96 15
4 11/04/2023 11:00:25 -80.82,-132.11 82.06 11/04/2023 11:00:28 -80.82,-132.10 82.06 0.33 3
5 11/04/2023 11:51:28 80.83, 35.47 98.00 11/04/2023 11:51:07 80.83, 35.38 97.97 1.82 21
6 11/04/2023 12:42:23 -80.83,-157.35 82.01 11/04/2023 12:41:49 -80.83,-157.24 82.01 1.93 34
7 11/04/2023 13:33:26 80.84, 10.24 98.05 11/04/2023 13:32:28 80.84, 10.24 98.02 0.05 58



Historial Predications of SNOs between NOAA-19 and METOP-C
